Year,Month,Day,Hour,Minute,Value (Times are PST for temperature in C)
2011,04,28,00,00,1.10
2011,04,28,00,01,1.10
2011,04,28,00,02,1.10
2011,04,28,00,03,1.10
2011,04,28,00,04,1.10
2011,04,28,00,05,1.10
2011,04,28,00,06,1.10
2011,04,28,00,07,1.10
2011,04,28,00,08,1.10
2011,04,28,00,09,1.10
2011,04,28,00,10,1.10
2011,04,28,00,11,1.10
2011,04,28,00,12,1.10
2011,04,28,00,13,1.10
2011,04,28,00,14,1.10
2011,04,28,00,15,1.10
2011,04,28,00,16,1.10
2011,04,28,00,17,1.10
2011,04,28,00,18,1.10
2011,04,28,00,19,1.10
2011,04,28,00,20,1.10
2011,04,28,00,21,1.10
2011,04,28,00,22,1.00
2011,04,28,00,23,1.00
2011,04,28,00,24,1.00
2011,04,28,00,25,1.00
2011,04,28,00,26,1.00
2011,04,28,00,27,1.00
2011,04,28,00,28,1.00
2011,04,28,00,29,1.00
2011,04,28,00,30,1.00
2011,04,28,00,31,0.90
2011,04,28,00,32,1.00
2011,04,28,00,33,1.00
2011,04,28,00,34,1.00
2011,04,28,00,35,1.00
2011,04,28,00,36,1.00
2011,04,28,00,37,1.00
2011,04,28,00,38,1.00
2011,04,28,00,39,1.00
2011,04,28,00,40,1.00
2011,04,28,00,41,1.00
2011,04,28,00,42,1.00
2011,04,28,00,43,1.10
2011,04,28,00,44,1.10
2011,04,28,00,45,1.10
2011,04,28,00,46,1.10
2011,04,28,00,47,1.10
2011,04,28,00,48,1.20
2011,04,28,00,49,1.20
2011,04,28,00,50,1.20
2011,04,28,00,51,1.20
2011,04,28,00,52,1.30
2011,04,28,00,53,1.30
2011,04,28,00,54,1.30
2011,04,28,00,55,1.30
2011,04,28,00,56,1.30
2011,04,28,00,57,1.30
2011,04,28,00,58,1.30
2011,04,28,00,59,1.30
2011,04,28,01,00,1.30
2011,04,28,01,01,1.40
2011,04,28,01,02,1.40
2011,04,28,01,03,1.50
2011,04,28,01,04,1.50
2011,04,28,01,05,1.50
2011,04,28,01,06,1.60
2011,04,28,01,07,1.60
2011,04,28,01,08,1.70
2011,04,28,01,09,1.70
2011,04,28,01,10,1.70
2011,04,28,01,11,1.70
2011,04,28,01,12,1.80
2011,04,28,01,13,1.80
2011,04,28,01,14,1.80
2011,04,28,01,15,1.80
2011,04,28,01,16,1.90
2011,04,28,01,17,1.90
2011,04,28,01,18,1.90
2011,04,28,01,19,1.90
2011,04,28,01,20,1.90
2011,04,28,01,21,2.00
2011,04,28,01,22,2.00
2011,04,28,01,23,2.00
2011,04,28,01,24,2.10
2011,04,28,01,25,2.10
2011,04,28,01,26,2.10
2011,04,28,01,27,2.20
2011,04,28,01,28,2.20
2011,04,28,01,29,2.20
2011,04,28,01,30,2.20
2011,04,28,01,31,2.20
2011,04,28,01,32,2.20
2011,04,28,01,33,2.30
2011,04,28,01,34,2.30
2011,04,28,01,35,2.30
2011,04,28,01,36,2.30
2011,04,28,01,37,2.30
2011,04,28,01,38,2.30
2011,04,28,01,39,2.30
2011,04,28,01,40,2.30
2011,04,28,01,41,2.30
2011,04,28,01,42,2.30
2011,04,28,01,43,2.30
2011,04,28,01,44,2.30
2011,04,28,01,45,2.30
2011,04,28,01,46,2.30
2011,04,28,01,47,2.40
2011,04,28,01,48,2.40
2011,04,28,01,49,2.40
2011,04,28,01,50,2.40
2011,04,28,01,51,2.40
2011,04,28,01,52,2.40
2011,04,28,01,53,2.40
2011,04,28,01,54,2.40
2011,04,28,01,55,2.40
2011,04,28,01,56,2.40
2011,04,28,01,57,2.40
2011,04,28,01,58,2.40
2011,04,28,01,59,2.40
2011,04,28,02,00,2.40
2011,04,28,02,01,2.40
2011,04,28,02,02,2.40
2011,04,28,02,03,2.40
2011,04,28,02,04,2.40
2011,04,28,02,05,2.50
2011,04,28,02,06,2.50
2011,04,28,02,07,2.50
2011,04,28,02,08,2.50
2011,04,28,02,09,2.50
2011,04,28,02,10,2.50
2011,04,28,02,11,2.50
2011,04,28,02,12,2.50
2011,04,28,02,13,2.50
2011,04,28,02,14,2.50
2011,04,28,02,15,2.50
2011,04,28,02,16,2.50
2011,04,28,02,17,2.50
2011,04,28,02,18,2.50
2011,04,28,02,19,2.50
2011,04,28,02,20,2.50
2011,04,28,02,21,2.50
2011,04,28,02,22,2.50
2011,04,28,02,23,2.50
2011,04,28,02,24,2.50
2011,04,28,02,25,2.50
2011,04,28,02,26,2.50
2011,04,28,02,27,2.50
2011,04,28,02,28,2.50
2011,04,28,02,29,2.50
2011,04,28,02,30,2.50
2011,04,28,02,31,2.50
2011,04,28,02,32,2.60
2011,04,28,02,33,2.60
2011,04,28,02,34,2.50
2011,04,28,02,35,2.60
2011,04,28,02,36,2.60
2011,04,28,02,37,2.60
2011,04,28,02,38,2.60
2011,04,28,02,39,2.60
2011,04,28,02,40,2.60
2011,04,28,02,41,2.60
2011,04,28,02,42,2.60
2011,04,28,02,43,2.60
2011,04,28,02,44,2.60
2011,04,28,02,45,2.60
2011,04,28,02,46,2.60
2011,04,28,02,47,2.60
2011,04,28,02,48,2.60
2011,04,28,02,49,2.60
2011,04,28,02,50,2.60
2011,04,28,02,51,2.60
2011,04,28,02,52,2.60
2011,04,28,02,53,2.60
2011,04,28,02,54,2.60
2011,04,28,02,55,2.60
2011,04,28,02,56,2.60
2011,04,28,02,57,2.60
2011,04,28,02,58,2.60
2011,04,28,02,59,2.60
2011,04,28,03,00,2.60
2011,04,28,03,01,2.60
2011,04,28,03,02,2.60
2011,04,28,03,03,2.70
2011,04,28,03,04,2.70
2011,04,28,03,05,2.60
2011,04,28,03,06,2.60
2011,04,28,03,07,2.60
2011,04,28,03,08,2.60
2011,04,28,03,09,2.60
2011,04,28,03,10,2.60
2011,04,28,03,11,2.60
2011,04,28,03,12,2.50
2011,04,28,03,13,2.50
2011,04,28,03,14,2.50
2011,04,28,03,15,2.50
2011,04,28,03,16,2.50
2011,04,28,03,17,2.50
2011,04,28,03,18,2.50
2011,04,28,03,19,2.40
2011,04,28,03,20,2.40
2011,04,28,03,21,2.40
2011,04,28,03,22,2.40
2011,04,28,03,23,2.40
2011,04,28,03,24,2.40
2011,04,28,03,25,2.40
2011,04,28,03,26,2.40
2011,04,28,03,27,2.40
2011,04,28,03,28,2.40
2011,04,28,03,29,2.40
2011,04,28,03,30,2.40
2011,04,28,03,31,2.40
2011,04,28,03,32,2.40
2011,04,28,03,33,2.40
2011,04,28,03,34,2.40
2011,04,28,03,35,2.40
2011,04,28,03,36,2.40
2011,04,28,03,37,2.40
2011,04,28,03,38,2.40
2011,04,28,03,39,2.30
2011,04,28,03,40,2.30
2011,04,28,03,41,2.30
2011,04,28,03,42,2.30
2011,04,28,03,43,2.30
2011,04,28,03,44,2.30
2011,04,28,03,45,2.30
2011,04,28,03,46,2.30
2011,04,28,03,47,2.30
2011,04,28,03,48,2.30
2011,04,28,03,49,2.30
2011,04,28,03,50,2.30
2011,04,28,03,51,2.30
2011,04,28,03,52,2.30
2011,04,28,03,53,2.30
2011,04,28,03,54,2.30
2011,04,28,03,55,2.30
2011,04,28,03,56,2.30
2011,04,28,03,57,2.30
2011,04,28,03,58,2.30
2011,04,28,03,59,2.30
2011,04,28,04,00,2.30
2011,04,28,04,01,2.30
2011,04,28,04,02,2.30
2011,04,28,04,03,2.30
2011,04,28,04,04,2.30
2011,04,28,04,05,2.30
2011,04,28,04,06,2.30
2011,04,28,04,07,2.30
2011,04,28,04,08,2.30
2011,04,28,04,09,2.30
2011,04,28,04,10,2.30
2011,04,28,04,11,2.40
2011,04,28,04,12,2.40
2011,04,28,04,13,2.40
2011,04,28,04,14,2.40
2011,04,28,04,15,2.40
2011,04,28,04,16,2.40
2011,04,28,04,17,2.40
2011,04,28,04,18,2.40
2011,04,28,04,19,2.40
2011,04,28,04,20,2.40
2011,04,28,04,21,2.40
2011,04,28,04,22,2.40
2011,04,28,04,23,2.40
2011,04,28,04,24,2.40
2011,04,28,04,25,2.40
2011,04,28,04,26,2.40
2011,04,28,04,27,2.40
2011,04,28,04,28,2.40
2011,04,28,04,29,2.40
2011,04,28,04,30,2.50
2011,04,28,04,31,2.50
2011,04,28,04,32,2.50
2011,04,28,04,33,2.50
2011,04,28,04,34,2.50
2011,04,28,04,35,2.50
2011,04,28,04,36,2.60
2011,04,28,04,37,2.60
2011,04,28,04,38,2.60
2011,04,28,04,39,2.60
2011,04,28,04,40,2.60
2011,04,28,04,41,2.60
2011,04,28,04,42,2.60
2011,04,28,04,43,2.60
2011,04,28,04,44,2.60
2011,04,28,04,45,2.70
2011,04,28,04,46,2.70
2011,04,28,04,47,2.60
2011,04,28,04,48,2.70
2011,04,28,04,49,2.60
2011,04,28,04,50,2.60
2011,04,28,04,51,2.60
2011,04,28,04,52,2.60
2011,04,28,04,53,2.60
2011,04,28,04,54,2.60
2011,04,28,04,55,2.60
2011,04,28,04,56,2.60
2011,04,28,04,57,2.60
2011,04,28,04,58,2.60
2011,04,28,04,59,2.60
2011,04,28,05,00,2.60
2011,04,28,05,01,2.60
2011,04,28,05,02,2.60
2011,04,28,05,03,2.60
2011,04,28,05,04,2.60
2011,04,28,05,05,2.60
2011,04,28,05,06,2.60
2011,04,28,05,07,2.50
2011,04,28,05,08,2.50
2011,04,28,05,09,2.50
2011,04,28,05,10,2.50
2011,04,28,05,11,2.50
2011,04,28,05,12,2.50
2011,04,28,05,13,2.50
2011,04,28,05,14,2.40
2011,04,28,05,15,2.40
2011,04,28,05,16,2.40
2011,04,28,05,17,2.40
2011,04,28,05,18,2.40
2011,04,28,05,19,2.40
2011,04,28,05,20,2.40
2011,04,28,05,21,2.40
2011,04,28,05,22,2.40
2011,04,28,05,23,2.40
2011,04,28,05,24,2.30
2011,04,28,05,25,2.30
2011,04,28,05,26,2.30
2011,04,28,05,27,2.30
2011,04,28,05,28,2.30
2011,04,28,05,29,2.30
2011,04,28,05,30,2.30
2011,04,28,05,31,2.30
2011,04,28,05,32,2.30
2011,04,28,05,33,2.30
2011,04,28,05,34,2.30
2011,04,28,05,35,2.30
2011,04,28,05,36,2.30
2011,04,28,05,37,2.30
2011,04,28,05,38,2.30
2011,04,28,05,39,2.30
2011,04,28,05,40,2.30
2011,04,28,05,41,2.30
2011,04,28,05,42,2.30
2011,04,28,05,43,2.40
2011,04,28,05,44,2.40
2011,04,28,05,45,2.40
2011,04,28,05,46,2.40
2011,04,28,05,47,2.40
2011,04,28,05,48,2.40
2011,04,28,05,49,2.40
2011,04,28,05,50,2.40
2011,04,28,05,51,2.50
2011,04,28,05,52,2.50
2011,04,28,05,53,2.50
2011,04,28,05,54,2.50
2011,04,28,05,55,2.50
2011,04,28,05,56,2.50
2011,04,28,05,57,2.50
2011,04,28,05,58,2.60
2011,04,28,05,59,2.60
2011,04,28,06,00,2.60
2011,04,28,06,01,2.60
2011,04,28,06,02,2.60
2011,04,28,06,03,2.60
2011,04,28,06,04,2.60
2011,04,28,06,05,2.60
2011,04,28,06,06,2.60
2011,04,28,06,07,2.60
2011,04,28,06,08,2.60
2011,04,28,06,09,2.60
2011,04,28,06,10,2.60
2011,04,28,06,11,2.60
2011,04,28,06,12,2.60
2011,04,28,06,13,2.60
2011,04,28,06,14,2.60
2011,04,28,06,15,2.60
2011,04,28,06,16,2.60
2011,04,28,06,17,2.60
2011,04,28,06,18,2.60
2011,04,28,06,19,2.70
2011,04,28,06,20,2.70
2011,04,28,06,21,2.70
2011,04,28,06,22,2.70
2011,04,28,06,23,2.70
2011,04,28,06,24,2.70
2011,04,28,06,25,2.70
2011,04,28,06,26,2.80
2011,04,28,06,27,2.80
2011,04,28,06,28,2.80
2011,04,28,06,29,2.80
2011,04,28,06,30,2.80
2011,04,28,06,31,2.80
2011,04,28,06,32,2.80
2011,04,28,06,33,2.80
2011,04,28,06,34,2.80
2011,04,28,06,35,2.80
2011,04,28,06,36,2.80
2011,04,28,06,37,2.80
2011,04,28,06,38,2.80
2011,04,28,06,39,2.80
2011,04,28,06,40,2.80
2011,04,28,06,41,2.80
2011,04,28,06,42,2.80
2011,04,28,06,43,2.80
2011,04,28,06,44,2.80
2011,04,28,06,45,2.80
2011,04,28,06,46,2.80
2011,04,28,06,47,2.80
2011,04,28,06,48,2.80
2011,04,28,06,49,2.80
2011,04,28,06,50,2.80
2011,04,28,06,51,2.80
2011,04,28,06,52,2.80
2011,04,28,06,53,2.80
2011,04,28,06,54,2.80
2011,04,28,06,55,2.80
2011,04,28,06,56,2.80
2011,04,28,06,57,2.90
2011,04,28,06,58,2.90
2011,04,28,06,59,2.90
2011,04,28,07,00,2.90
2011,04,28,07,01,2.90
2011,04,28,07,02,2.90
2011,04,28,07,03,2.90
2011,04,28,07,04,2.90
2011,04,28,07,05,2.90
2011,04,28,07,06,3.00
2011,04,28,07,07,3.00
2011,04,28,07,08,2.90
2011,04,28,07,09,2.90
2011,04,28,07,10,2.90
2011,04,28,07,11,2.90
2011,04,28,07,12,2.90
2011,04,28,07,13,2.90
2011,04,28,07,14,3.00
2011,04,28,07,15,3.00
2011,04,28,07,16,3.00
2011,04,28,07,17,3.00
2011,04,28,07,18,3.00
2011,04,28,07,19,3.00
2011,04,28,07,20,3.00
2011,04,28,07,21,3.00
2011,04,28,07,22,3.10
2011,04,28,07,23,3.10
2011,04,28,07,24,3.10
2011,04,28,07,25,3.10
2011,04,28,07,26,3.10
2011,04,28,07,27,3.10
2011,04,28,07,28,3.10
2011,04,28,07,29,3.10
2011,04,28,07,30,3.10
2011,04,28,07,31,3.10
2011,04,28,07,32,3.20
2011,04,28,07,33,3.20
2011,04,28,07,34,3.20
2011,04,28,07,35,3.20
2011,04,28,07,36,3.20
2011,04,28,07,37,3.20
2011,04,28,07,38,3.20
2011,04,28,07,39,3.20
2011,04,28,07,40,3.20
2011,04,28,07,41,3.20
2011,04,28,07,42,3.20
2011,04,28,07,43,3.20
2011,04,28,07,44,3.20
2011,04,28,07,45,3.20
2011,04,28,07,46,3.20
2011,04,28,07,47,3.30
2011,04,28,07,48,3.30
2011,04,28,07,49,3.30
2011,04,28,07,50,3.30
2011,04,28,07,51,3.30
2011,04,28,07,52,3.30
2011,04,28,07,53,3.30
2011,04,28,07,54,3.30
2011,04,28,07,55,3.30
2011,04,28,07,56,3.30
2011,04,28,07,57,3.30
2011,04,28,07,58,3.40
2011,04,28,07,59,3.40
2011,04,28,08,00,3.40
2011,04,28,08,01,3.40
2011,04,28,08,02,3.40
2011,04,28,08,03,3.40
2011,04,28,08,04,3.50
2011,04,28,08,05,3.50
2011,04,28,08,06,3.50
2011,04,28,08,07,3.50
2011,04,28,08,08,3.60
2011,04,28,08,09,3.60
2011,04,28,08,10,3.60
2011,04,28,08,11,3.60
2011,04,28,08,12,3.60
2011,04,28,08,13,3.60
2011,04,28,08,14,3.60
2011,04,28,08,15,3.70
2011,04,28,08,16,3.70
2011,04,28,08,17,3.70
2011,04,28,08,18,3.70
2011,04,28,08,19,3.70
2011,04,28,08,20,3.70
2011,04,28,08,21,3.80
2011,04,28,08,22,3.80
2011,04,28,08,23,3.80
2011,04,28,08,24,3.80
2011,04,28,08,25,3.80
2011,04,28,08,26,3.80
2011,04,28,08,27,3.80
2011,04,28,08,28,3.90
2011,04,28,08,29,3.90
2011,04,28,08,30,3.90
2011,04,28,08,31,3.90
2011,04,28,08,32,3.90
2011,04,28,08,33,4.00
2011,04,28,08,34,4.00
2011,04,28,08,35,4.00
2011,04,28,08,36,4.10
2011,04,28,08,37,4.10
2011,04,28,08,38,4.10
2011,04,28,08,39,4.10
2011,04,28,08,40,4.10
2011,04,28,08,41,4.20
2011,04,28,08,42,4.20
2011,04,28,08,43,4.20
2011,04,28,08,44,4.30
2011,04,28,08,45,4.30
2011,04,28,08,46,4.30
2011,04,28,08,47,4.30
2011,04,28,08,48,4.30
2011,04,28,08,49,4.30
2011,04,28,08,50,4.40
2011,04,28,08,51,4.40
2011,04,28,08,52,4.40
2011,04,28,08,53,4.40
2011,04,28,08,54,4.50
2011,04,28,08,55,4.50
2011,04,28,08,56,4.60
2011,04,28,08,57,4.60
2011,04,28,08,58,4.70
2011,04,28,08,59,4.70
2011,04,28,09,00,4.70
2011,04,28,09,01,4.80
2011,04,28,09,02,4.80
2011,04,28,09,03,4.80
2011,04,28,09,04,4.80
2011,04,28,09,05,4.90
2011,04,28,09,06,5.00
2011,04,28,09,07,5.00
2011,04,28,09,08,5.10
2011,04,28,09,09,5.10
2011,04,28,09,10,5.10
2011,04,28,09,11,5.10
2011,04,28,09,12,5.10
2011,04,28,09,13,5.10
2011,04,28,09,14,5.10
2011,04,28,09,15,5.20
2011,04,28,09,16,5.20
2011,04,28,09,17,5.20
2011,04,28,09,18,5.20
2011,04,28,09,19,5.20
2011,04,28,09,20,5.30
2011,04,28,09,21,5.30
2011,04,28,09,22,5.30
2011,04,28,09,23,5.30
2011,04,28,09,24,5.40
2011,04,28,09,25,5.40
2011,04,28,09,26,5.50
2011,04,28,09,27,5.50
2011,04,28,09,28,5.60
2011,04,28,09,29,5.60
2011,04,28,09,30,5.70
2011,04,28,09,31,5.70
2011,04,28,09,32,5.70
2011,04,28,09,33,5.70
2011,04,28,09,34,5.70
2011,04,28,09,35,5.70
2011,04,28,09,36,5.70
2011,04,28,09,37,5.70
2011,04,28,09,38,5.60
2011,04,28,09,39,5.60
2011,04,28,09,40,5.60
2011,04,28,09,41,5.60
2011,04,28,09,42,5.60
2011,04,28,09,43,5.70
2011,04,28,09,44,5.70
2011,04,28,09,45,5.70
2011,04,28,09,46,5.80
2011,04,28,09,47,5.80
2011,04,28,09,48,5.80
2011,04,28,09,49,5.80
2011,04,28,09,50,5.80
2011,04,28,09,51,5.90
2011,04,28,09,52,5.90
2011,04,28,09,53,5.90
2011,04,28,09,54,6.00
2011,04,28,09,55,6.00
2011,04,28,09,56,6.00
2011,04,28,09,57,6.10
2011,04,28,09,58,6.10
2011,04,28,09,59,6.10
2011,04,28,10,00,6.10
2011,04,28,10,01,6.00
2011,04,28,10,02,6.00
2011,04,28,10,03,6.00
2011,04,28,10,04,6.00
2011,04,28,10,05,5.90
2011,04,28,10,06,5.80
2011,04,28,10,07,5.80
2011,04,28,10,08,5.70
2011,04,28,10,09,5.70
2011,04,28,10,10,5.70
2011,04,28,10,11,5.70
2011,04,28,10,12,5.70
2011,04,28,10,13,5.70
2011,04,28,10,14,5.70
2011,04,28,10,15,5.70
2011,04,28,10,16,5.60
2011,04,28,10,17,5.60
2011,04,28,10,18,5.60
2011,04,28,10,19,5.60
2011,04,28,10,20,5.60
2011,04,28,10,21,5.60
2011,04,28,10,22,5.60
2011,04,28,10,23,5.60
2011,04,28,10,24,5.60
2011,04,28,10,25,5.60
2011,04,28,10,26,5.60
2011,04,28,10,27,5.70
2011,04,28,10,28,5.70
2011,04,28,10,29,5.80
2011,04,28,10,30,5.80
2011,04,28,10,31,5.80
2011,04,28,10,32,5.80
2011,04,28,10,33,5.90
2011,04,28,10,34,5.90
2011,04,28,10,35,5.90
2011,04,28,10,36,6.00
2011,04,28,10,37,6.00
2011,04,28,10,38,6.10
2011,04,28,10,39,6.10
2011,04,28,10,40,6.10
2011,04,28,10,41,6.10
2011,04,28,10,42,6.10
2011,04,28,10,43,6.20
2011,04,28,10,44,6.20
2011,04,28,10,45,6.20
2011,04,28,10,46,6.20
2011,04,28,10,47,6.20
2011,04,28,10,48,6.20
2011,04,28,10,49,6.30
2011,04,28,10,50,6.30
2011,04,28,10,51,6.30
2011,04,28,10,52,6.30
2011,04,28,10,53,6.40
2011,04,28,10,54,6.40
2011,04,28,10,55,6.40
2011,04,28,10,56,6.40
2011,04,28,10,57,6.50
2011,04,28,10,58,6.50
2011,04,28,10,59,6.50
2011,04,28,11,00,6.60
2011,04,28,11,01,6.60
2011,04,28,11,02,6.60
2011,04,28,11,03,6.60
2011,04,28,11,04,6.70
2011,04,28,11,05,6.70
2011,04,28,11,06,6.70
2011,04,28,11,07,6.80
2011,04,28,11,08,6.80
2011,04,28,11,09,6.90
2011,04,28,11,10,6.90
2011,04,28,11,11,6.90
2011,04,28,11,12,7.00
2011,04,28,11,13,7.00
2011,04,28,11,14,7.00
2011,04,28,11,15,7.00
2011,04,28,11,16,7.00
2011,04,28,11,17,7.00
2011,04,28,11,18,7.00
2011,04,28,11,19,7.00
2011,04,28,11,20,7.10
2011,04,28,11,21,7.10
2011,04,28,11,22,7.20
2011,04,28,11,23,7.20
2011,04,28,11,24,7.30
2011,04,28,11,25,7.40
2011,04,28,11,26,7.50
2011,04,28,11,27,7.60
2011,04,28,11,28,7.70
2011,04,28,11,29,7.80
2011,04,28,11,30,7.90
2011,04,28,11,31,8.00
2011,04,28,11,32,8.10
2011,04,28,11,33,8.20
2011,04,28,11,34,8.30
2011,04,28,11,35,8.30
2011,04,28,11,36,8.30
2011,04,28,11,37,8.30
2011,04,28,11,38,8.30
2011,04,28,11,39,8.30
2011,04,28,11,40,8.40
2011,04,28,11,41,8.40
2011,04,28,11,42,8.50
2011,04,28,11,43,8.60
2011,04,28,11,44,8.60
2011,04,28,11,45,8.60
2011,04,28,11,46,8.70
2011,04,28,11,47,8.70
2011,04,28,11,48,8.80
2011,04,28,11,49,8.80
2011,04,28,11,50,8.80
2011,04,28,11,51,8.80
2011,04,28,11,52,8.70
2011,04,28,11,53,8.70
2011,04,28,11,54,8.70
2011,04,28,11,55,8.70
2011,04,28,11,56,8.60
2011,04,28,11,57,8.60
2011,04,28,11,58,8.60
2011,04,28,11,59,8.60
2011,04,28,12,00,8.60
2011,04,28,12,01,8.60
2011,04,28,12,02,8.60
2011,04,28,12,03,8.60
2011,04,28,12,04,8.60
2011,04,28,12,05,8.60
2011,04,28,12,06,8.60
2011,04,28,12,07,8.50
2011,04,28,12,08,8.50
2011,04,28,12,09,8.50
2011,04,28,12,10,8.50
2011,04,28,12,11,8.50
2011,04,28,12,12,8.50
2011,04,28,12,13,8.50
2011,04,28,12,14,8.40
2011,04,28,12,15,8.40
2011,04,28,12,16,8.40
2011,04,28,12,17,8.30
2011,04,28,12,18,8.30
2011,04,28,12,19,8.30
2011,04,28,12,20,8.30
2011,04,28,12,21,8.30
2011,04,28,12,22,8.30
2011,04,28,12,23,8.30
2011,04,28,12,24,8.30
2011,04,28,12,25,8.30
2011,04,28,12,26,8.30
2011,04,28,12,27,8.20
2011,04,28,12,28,8.20
2011,04,28,12,29,8.20
2011,04,28,12,30,8.20
2011,04,28,12,31,8.20
2011,04,28,12,32,8.20
2011,04,28,12,33,8.20
2011,04,28,12,34,8.30
2011,04,28,12,35,8.40
2011,04,28,12,36,8.40
2011,04,28,12,37,8.40
2011,04,28,12,38,8.50
2011,04,28,12,39,8.50
2011,04,28,12,40,8.50
2011,04,28,12,41,8.50
2011,04,28,12,42,8.50
2011,04,28,12,43,8.60
2011,04,28,12,44,8.60
2011,04,28,12,45,8.50
2011,04,28,12,46,8.50
2011,04,28,12,47,8.50
2011,04,28,12,48,8.40
2011,04,28,12,49,8.30
2011,04,28,12,50,8.20
2011,04,28,12,51,8.10
2011,04,28,12,52,8.00
2011,04,28,12,53,7.90
2011,04,28,12,54,7.90
2011,04,28,12,55,7.90
2011,04,28,12,56,7.80
2011,04,28,12,57,7.80
2011,04,28,12,58,7.80
2011,04,28,12,59,7.80
2011,04,28,13,00,7.80
2011,04,28,13,01,7.80
2011,04,28,13,02,7.80
2011,04,28,13,03,7.90
2011,04,28,13,04,8.00
2011,04,28,13,05,8.10
2011,04,28,13,06,8.20
2011,04,28,13,07,8.30
2011,04,28,13,08,8.50
2011,04,28,13,09,8.70
2011,04,28,13,10,8.90
2011,04,28,13,11,9.10
2011,04,28,13,12,9.20
2011,04,28,13,13,9.40
2011,04,28,13,14,9.40
2011,04,28,13,15,9.50
2011,04,28,13,16,9.40
2011,04,28,13,17,9.50
2011,04,28,13,18,9.50
2011,04,28,13,19,9.60
2011,04,28,13,20,9.60
2011,04,28,13,21,9.70
2011,04,28,13,22,9.80
2011,04,28,13,23,9.80
2011,04,28,13,24,9.80
2011,04,28,13,25,9.80
2011,04,28,13,26,9.80
2011,04,28,13,27,9.70
2011,04,28,13,28,9.70
2011,04,28,13,29,9.60
2011,04,28,13,30,9.60
2011,04,28,13,31,9.60
2011,04,28,13,32,9.60
2011,04,28,13,33,9.70
2011,04,28,13,34,9.70
2011,04,28,13,35,9.70
2011,04,28,13,36,9.60
2011,04,28,13,37,9.50
2011,04,28,13,38,9.30
2011,04,28,13,39,9.20
2011,04,28,13,40,9.10
2011,04,28,13,41,9.10
2011,04,28,13,42,9.10
2011,04,28,13,43,9.10
2011,04,28,13,44,9.10
2011,04,28,13,45,9.10
2011,04,28,13,46,9.20
2011,04,28,13,47,9.20
2011,04,28,13,48,9.20
2011,04,28,13,49,9.30
2011,04,28,13,50,9.30
2011,04,28,13,51,9.30
2011,04,28,13,52,9.20
2011,04,28,13,53,9.20
2011,04,28,13,54,9.10
2011,04,28,13,55,8.90
2011,04,28,13,56,8.80
2011,04,28,13,57,8.70
2011,04,28,13,58,8.70
2011,04,28,13,59,8.60
2011,04,28,14,00,8.60
2011,04,28,14,01,8.70
2011,04,28,14,02,8.70
2011,04,28,14,03,8.80
2011,04,28,14,04,8.90
2011,04,28,14,05,9.00
2011,04,28,14,06,9.10
2011,04,28,14,07,9.30
2011,04,28,14,08,9.30
2011,04,28,14,09,9.40
2011,04,28,14,10,9.40
2011,04,28,14,11,9.40
2011,04,28,14,12,9.50
2011,04,28,14,13,9.60
2011,04,28,14,14,9.70
2011,04,28,14,15,9.80
2011,04,28,14,16,9.80
2011,04,28,14,17,9.80
2011,04,28,14,18,9.70
2011,04,28,14,19,9.70
2011,04,28,14,20,9.60
2011,04,28,14,21,9.60
2011,04,28,14,22,9.60
2011,04,28,14,23,9.60
2011,04,28,14,24,9.70
2011,04,28,14,25,9.70
2011,04,28,14,26,9.60
2011,04,28,14,27,9.60
2011,04,28,14,28,9.70
2011,04,28,14,29,9.70
2011,04,28,14,30,9.80
2011,04,28,14,31,9.70
2011,04,28,14,32,9.70
2011,04,28,14,33,9.60
2011,04,28,14,34,9.60
2011,04,28,14,35,9.60
2011,04,28,14,36,9.50
2011,04,28,14,37,9.40
2011,04,28,14,38,9.40
2011,04,28,14,39,9.40
2011,04,28,14,40,9.40
2011,04,28,14,41,9.30
2011,04,28,14,42,9.30
2011,04,28,14,43,9.30
2011,04,28,14,44,9.20
2011,04,28,14,45,9.20
2011,04,28,14,46,9.20
2011,04,28,14,47,9.10
2011,04,28,14,48,9.10
2011,04,28,14,49,9.10
2011,04,28,14,50,9.10
2011,04,28,14,51,9.10
2011,04,28,14,52,9.10
2011,04,28,14,53,9.10
2011,04,28,14,54,9.10
2011,04,28,14,55,9.10
2011,04,28,14,56,9.10
2011,04,28,14,57,9.10
2011,04,28,14,58,9.20
2011,04,28,14,59,9.30
2011,04,28,15,00,9.40
2011,04,28,15,01,9.50
2011,04,28,15,02,9.60
2011,04,28,15,03,9.70
2011,04,28,15,04,9.70
2011,04,28,15,05,9.70
2011,04,28,15,06,9.60
2011,04,28,15,07,9.50
2011,04,28,15,08,9.40
2011,04,28,15,09,9.40
2011,04,28,15,10,9.40
2011,04,28,15,11,9.40
2011,04,28,15,12,9.50
2011,04,28,15,13,9.50
2011,04,28,15,14,9.60
2011,04,28,15,15,9.70
2011,04,28,15,16,9.80
2011,04,28,15,17,9.80
2011,04,28,15,18,9.80
2011,04,28,15,19,9.80
2011,04,28,15,20,9.90
2011,04,28,15,21,9.90
2011,04,28,15,22,9.90
2011,04,28,15,23,9.90
2011,04,28,15,24,9.90
2011,04,28,15,25,9.90
2011,04,28,15,26,9.90
2011,04,28,15,27,9.90
2011,04,28,15,28,9.80
2011,04,28,15,29,9.80
2011,04,28,15,30,9.70
2011,04,28,15,31,9.70
2011,04,28,15,32,9.60
2011,04,28,15,33,9.60
2011,04,28,15,34,9.50
2011,04,28,15,35,9.50
2011,04,28,15,36,9.40
2011,04,28,15,37,9.30
2011,04,28,15,38,9.30
2011,04,28,15,39,9.20
2011,04,28,15,40,9.20
2011,04,28,15,41,9.30
2011,04,28,15,42,9.30
2011,04,28,15,43,9.30
2011,04,28,15,44,9.30
2011,04,28,15,45,9.30
2011,04,28,15,46,9.30
2011,04,28,15,47,9.30
2011,04,28,15,48,9.30
2011,04,28,15,49,9.30
2011,04,28,15,50,9.40
2011,04,28,15,51,9.40
2011,04,28,15,52,9.50
2011,04,28,15,53,9.50
2011,04,28,15,54,9.50
2011,04,28,15,55,9.50
2011,04,28,15,56,9.50
2011,04,28,15,57,9.50
2011,04,28,15,58,9.50
2011,04,28,15,59,9.40
2011,04,28,16,00,9.40
2011,04,28,16,01,9.40
2011,04,28,16,02,9.40
2011,04,28,16,03,9.40
2011,04,28,16,04,9.40
2011,04,28,16,05,9.40
2011,04,28,16,06,9.40
2011,04,28,16,07,9.40
2011,04,28,16,08,9.40
2011,04,28,16,09,9.30
2011,04,28,16,10,9.30
2011,04,28,16,11,9.30
2011,04,28,16,12,9.30
2011,04,28,16,13,9.30
2011,04,28,16,14,9.30
2011,04,28,16,15,9.30
2011,04,28,16,16,9.30
2011,04,28,16,17,9.30
2011,04,28,16,18,9.30
2011,04,28,16,19,9.20
2011,04,28,16,20,9.20
2011,04,28,16,21,9.20
2011,04,28,16,22,9.20
2011,04,28,16,23,9.20
2011,04,28,16,24,9.30
2011,04,28,16,25,9.30
2011,04,28,16,26,9.30
2011,04,28,16,27,9.30
2011,04,28,16,28,9.30
2011,04,28,16,29,9.30
2011,04,28,16,30,9.30
2011,04,28,16,31,9.30
2011,04,28,16,32,9.30
2011,04,28,16,33,9.30
2011,04,28,16,34,9.30
2011,04,28,16,35,9.30
2011,04,28,16,36,9.20
2011,04,28,16,37,9.10
2011,04,28,16,38,9.00
2011,04,28,16,39,9.00
2011,04,28,16,40,8.90
2011,04,28,16,41,8.90
2011,04,28,16,42,9.00
2011,04,28,16,43,9.00
2011,04,28,16,44,9.00
2011,04,28,16,45,9.00
2011,04,28,16,46,9.00
2011,04,28,16,47,9.10
2011,04,28,16,48,9.10
2011,04,28,16,49,9.00
2011,04,28,16,50,9.00
2011,04,28,16,51,8.90
2011,04,28,16,52,8.90
2011,04,28,16,53,8.90
2011,04,28,16,54,8.90
2011,04,28,16,55,8.90
2011,04,28,16,56,8.90
2011,04,28,16,57,8.90
2011,04,28,16,58,8.90
2011,04,28,16,59,9.00
2011,04,28,17,00,9.00
2011,04,28,17,01,9.10
2011,04,28,17,02,9.00
2011,04,28,17,03,9.00
2011,04,28,17,04,9.00
2011,04,28,17,05,8.90
2011,04,28,17,06,8.90
2011,04,28,17,07,8.80
2011,04,28,17,08,8.80
2011,04,28,17,09,8.80
2011,04,28,17,10,8.80
2011,04,28,17,11,8.80
2011,04,28,17,12,8.80
2011,04,28,17,13,8.80
2011,04,28,17,14,8.80
2011,04,28,17,15,8.70
2011,04,28,17,16,8.70
2011,04,28,17,17,8.60
2011,04,28,17,18,8.60
2011,04,28,17,19,8.60
2011,04,28,17,20,8.50
2011,04,28,17,21,8.40
2011,04,28,17,22,8.40
2011,04,28,17,23,8.40
2011,04,28,17,24,8.40
2011,04,28,17,25,8.40
2011,04,28,17,26,8.40
2011,04,28,17,27,8.40
2011,04,28,17,28,8.40
2011,04,28,17,29,8.40
2011,04,28,17,30,8.50
2011,04,28,17,31,8.50
2011,04,28,17,32,8.60
2011,04,28,17,33,8.60
2011,04,28,17,34,8.60
2011,04,28,17,35,8.60
2011,04,28,17,36,8.70
2011,04,28,17,37,8.60
2011,04,28,17,38,8.60
2011,04,28,17,39,8.60
2011,04,28,17,40,8.60
2011,04,28,17,41,8.60
2011,04,28,17,42,8.60
2011,04,28,17,43,8.60
2011,04,28,17,44,8.60
2011,04,28,17,45,8.60
2011,04,28,17,46,8.60
2011,04,28,17,47,8.60
2011,04,28,17,48,8.60
2011,04,28,17,49,8.50
2011,04,28,17,50,8.50
2011,04,28,17,51,8.50
2011,04,28,17,52,8.50
2011,04,28,17,53,8.50
2011,04,28,17,54,8.60
2011,04,28,17,55,8.60
2011,04,28,17,56,8.60
2011,04,28,17,57,8.60
2011,04,28,17,58,8.60
2011,04,28,17,59,8.60
2011,04,28,18,00,8.60
2011,04,28,18,01,8.60
2011,04,28,18,02,8.60
2011,04,28,18,03,8.50
2011,04,28,18,04,8.50
2011,04,28,18,05,8.50
2011,04,28,18,06,8.50